This is the latest recevied weather packets stored in our database for station/object EA5DFV. If no packets are shown the sender has not sent any weather packets the latest 10 day(s).
| Time | Temp. | Humidity | Pressure | Rain* | Wind** | Luminosity | Snow |
|---|---|---|---|---|---|---|---|
| 1777817014 | 21.11° C | 70% | 1013.2 hPa | 0 mm | - | 297 W/m² | - |
| 1777816707 | 21.67° C | 70% | 1013.3 hPa | 0 mm | - | 227 W/m² | - |
| 1777816403 | 21.67° C | 70% | 1013.3 hPa | 0 mm | - | 172 W/m² | - |
| 1777816114 | 21.67° C | 70% | 1013.3 hPa | 0 mm | - | 153 W/m² | - |
| 1777815805 | 21.67° C | 69% | 1013.3 hPa | 0 mm | - | 271 W/m² | - |
| 1777815515 | 22.22° C | 68% | 1013.2 hPa | 0 mm | - | 332 W/m² | - |
| 1777815206 | 22.22° C | 68% | 1013.3 hPa | 0 mm | - | 448 W/m² | - |
| 1777814903 | 22.22° C | 66% | 1013.2 hPa | 0 mm | - | 513 W/m² | - |
| 1777814614 | 22.22° C | 67% | 1013.2 hPa | 0 mm | - | 872 W/m² | - |
| 1777814307 | 22.22° C | 69% | 1013.2 hPa | 0 mm | - | 830 W/m² | - |
| 1777814018 | 21.67° C | 70% | 1013.1 hPa | 0 mm | - | 628 W/m² | - |
| 1777813709 | 21.67° C | 71% | 1013.2 hPa | 0 mm | - | 960 W/m² | - |
| 1777813405 | 21.11° C | 70% | 1013.3 hPa | 0 mm | - | 497 W/m² | - |
| 1777813116 | 21.11° C | 71% | 1013.3 hPa | 0 mm | - | 364 W/m² | - |
| 1777812806 | 21.67° C | 69% | 1013.5 hPa | 0 mm | - | 236 W/m² | - |
| 1777812501 | 21.67° C | 69% | 1013.6 hPa | 0 mm | - | 174 W/m² | - |
| 1777812211 | 21.67° C | 70% | 1013.5 hPa | 0 mm | - | 225 W/m² | - |
| 1777811902 | 22.22° C | 71% | 1013.5 hPa | 0 mm | - | 334 W/m² | - |
| 1777811616 | 22.22° C | 71% | 1013.4 hPa | 0 mm | - | 396 W/m² | - |
| 1777811309 | 22.22° C | 69% | 1013.4 hPa | 0 mm | - | 438 W/m² | - |
| 1777811020 | 22.22° C | 68% | 1013.4 hPa | 0 mm | - | 318 W/m² | - |
| 1777810404 | 22.22° C | 69% | 1013.4 hPa | 0 mm | - | 1062 W/m² | - |
| 1777810113 | 22.22° C | 69% | 1013.5 hPa | 0 mm | - | 1063 W/m² | - |
| 1777809811 | 22.22° C | 69% | 1013.5 hPa | 0 mm | - | 566 W/m² | - |
| 1777809504 | 22.22° C | 70% | 1013.5 hPa | 0 mm | - | 1023 W/m² | - |
* Rain latest hour (hover to see other rain measurements)
** Current wind speed in m/s (hover to see current wind gust speed)